QPF
0.00 0.00 0.00 0.00 0.01 0.01 0.01 0.01 0.01 0.00 0.00 0.00 0.01 0.01 0.01 0.02 0.02 0.02 0.02 0.02 0.02 0.03 0.03 0.01 0.01 0.01 0.01 0.01 0.01 0.01 0.01 0.01 0.01 0.01 0.01 0.01 0.01 0.02 0.05 0.07 0.06 0.05 0.04 0.03
0.00 0.01 0.01 0.01 0.01 0.01 0.01 0.02 0.01 0.00 0.01 0.01 0.02 0.02 0.02 0.03 0.03 0.03 0.03 0.03 0.02 0.01 0.01 0.01 0.01 0.01 0.01 0.01 0.01 0.01 0.02 0.02 0.02 0.01 0.01 0.01 0.01 0.01 0.01 0.03 0.04 0.05 0.05 0.03
0.00 0.00 0.00 0.01 0.01 0.02 0.01 0.01 0.01 0.01 0.01 0.01 0.02 0.04 0.05 0.05 0.05 0.04 0.02 0.02 0.02 0.02 0.02 0.02 0.02 0.02 0.01 0.01 0.01 0.02 0.02 0.02 0.02 0.01 0.01 0.01 0.01 0.01 0.01 0.01 0.00 0.01 0.01 0.01
0.00 0.01 0.01 0.01 0.02 0.02 0.02 0.01 0.01 0.01 0.01 0.02 0.02 0.03 0.03 0.03 0.03 0.03 0.03 0.03 0.04 0.04 0.05 0.06 0.06 0.04 0.03 0.03 0.02 0.02 0.01 0.01 0.01 0.00 0.00 0.00 0.01 0.01 0.01 0.01 0.01 0.00 0.00 0.00
0.01 0.01 0.01 0.01 0.02 0.02 0.02 0.01 0.01 0.01 0.01 0.02 0.03 0.02 0.02 0.02 0.03 0.03 0.03 0.04 0.06 0.06 0.09 0.11 0.09 0.07 0.05 0.04 0.04 0.03 0.02 0.01 0.00 0.00 0.00 0.00 0.00 0.00 0.00 0.01 0.01 0.00 0.00 0.01
0.01 0.01 0.01 0.01 0.01 0.01 0.01 0.01 0.01 0.01 0.01 0.01 0.01 0.01 0.01 0.02 0.02 0.03 0.03 0.07 0.06 0.05 0.08 0.10 0.07 0.05 0.04 0.04 0.04 0.04 0.03 0.02 0.01 0.00 0.00 0.00 0.00 0.00 0.00 0.01 0.01 0.01 0.00 0.01
0.01 0.01 0.01 0.01 0.01 0.01 0.01 0.00 0.01 0.01 0.01 0.00 0.01 0.01 0.00 0.00 0.01 0.01 0.02 0.04 0.04 0.03 0.04 0.05 0.04 0.03 0.02 0.03 0.04 0.03 0.02 0.01 0.01 0.01 0.00 0.00 0.00 0.00 0.00 0.00 0.01 0.01 0.01 0.01
0.01 0.01 0.00 0.00 0.01 0.01 0.01 0.01 0.01 0.01 0.01 0.01 0.00 0.00 0.00 0.00 0.00 0.00 0.01 0.02 0.03 0.03 0.04 0.04 0.04 0.03 0.03 0.04 0.04 0.04 0.03 0.01 0.01 0.01 0.01 0.01 0.01 0.01 0.00 0.00 0.00 0.00 0.01 0.01
0.01 0.00 0.00 0.00 0.00 0.00 0.00 0.00 0.00 0.01 0.01 0.01 0.00 0.00 0.00 0.00 0.00 0.00 0.01 0.01 0.02 0.03 0.04 0.04 0.04 0.04 0.04 0.04 0.04 0.05 0.05 0.03 0.01 0.01 0.00 0.00 0.00 0.00 0.00 0.00 0.00 0.00 0.00 0.00
0.01 0.01 0.00 0.00 0.00 0.00 0.00 0.00 0.00 0.00 0.00 0.00 0.00 0.00 0.00 0.00 0.00 0.00 0.00 0.01 0.01 0.01 0.02 0.03 0.04 0.04 0.04 0.05 0.05 0.05 0.05 0.04 0.02 0.01 0.01 0.01 0.00 0.00 0.00 0.00 0.00 0.00 0.01 0.01
0.01 0.01 0.01 0.00 0.00 0.01 0.01 0.01 0.01 0.00 0.00 0.00 0.00 0.00 0.00 0.00 0.00 0.00 0.00 0.01 0.01 0.01 0.01 0.02 0.03 0.03 0.03 0.03 0.03 0.05 0.05 0.05 0.03 0.02 0.02 0.01 0.00 0.00 0.00 0.00 0.00 0.00 0.00 0.01
0.00 0.00 0.00 0.00 0.00 0.01 0.02 0.04 0.04 0.01 0.01 0.00 0.00 0.00 0.00 0.00 0.00 0.00 0.01 0.02 0.01 0.01 0.01 0.01 0.02 0.02 0.02 0.02 0.01 0.02 0.03 0.04 0.03 0.03 0.02 0.01 0.00 0.00 0.00 0.00 0.00 0.00 0.00 0.01
0.00 0.00 0.00 0.00 0.00 0.00 0.01 0.02 0.02 0.01 0.01 0.00 0.01 0.01 0.00 0.00 0.00 0.00 0.01 0.02 0.01 0.01 0.01 0.00 0.01 0.02 0.01 0.02 0.01 0.01 0.01 0.02 0.02 0.02 0.02 0.01 0.01 0.00 0.00 0.00 0.00 0.00 0.00 0.01
0.00 0.00 0.00 0.00 0.00 0.00 0.01 0.01 0.01 0.01 0.00 0.00 0.00 0.00 0.00 0.00 0.00 0.00 0.01 0.01 0.00 0.00 0.01 0.01 0.02 0.02 0.01 0.01 0.01 0.01 0.01 0.02 0.02 0.01 0.01 0.00 0.00 0.00 0.00 0.00 0.00 0.00 0.00 0.00
0.00 0.00 0.00 0.00 0.00 0.00 0.00 0.01 0.01 0.00 0.00 0.00 0.00 0.01 0.00 0.00 0.00 0.00 0.01 0.00 0.00 0.00 0.00 0.01 0.01 0.01 0.01 0.01 0.01 0.01 0.01 0.01 0.01 0.01 0.01 0.00 0.00 0.00 0.00 0.00 0.00 0.00 0.00 0.00
0.00 0.00 0.00 0.00 0.00 0.00 0.00 0.00 0.00 0.00 0.00 0.00 0.00 0.01 0.01 0.00 0.00 0.00 0.00 0.00 0.00 0.00 0.00 0.00 0.00 0.01 0.00 0.00 0.01 0.01 0.02 0.01 0.00 0.01 0.01 0.01 0.00 0.00 0.00 0.00 0.00 0.00 0.00 0.00
0.00 0.00 0.00 0.00 0.00 0.00 0.00 0.00 0.00 0.00 0.00 0.00 0.00 0.00 0.01 0.00 0.00 0.00 0.00 0.00 0.00 0.00 0.00 0.00 0.00 0.00 0.00 0.00 0.00 0.00 0.00 0.00 0.00 0.00 0.00 0.00 0.00 0.00 0.00 0.00 0.00 0.00 0.00 0.00
0.00 0.00 0.00 0.00 0.00 0.00 0.00 0.00 0.00 0.00 0.00 0.00 0.00 0.00 0.00 0.00 0.00 0.00 0.00 0.00 0.00 0.00 0.00 0.00 0.00 0.00 0.00 0.00 0.00 0.00 0.01 0.01 0.00 0.00 0.00 0.00 0.00 0.00 0.00 0.00 0.00 0.00 0.00 0.00
0.00 0.00 0.00 0.00 0.00 0.00 0.00 0.00 0.00 0.00 0.00 0.00 0.00 0.00 0.00 0.00 0.00 0.00 0.00 0.00 0.00 0.00 0.00 0.00 0.00 0.00 0.00 0.00 0.00 0.00 0.00 0.01 0.00 0.00 0.00 0.00 0.00 0.00 0.00 0.00 0.00 0.00 0.00 0.00
0.00 0.00 0.00 0.00 0.00 0.00 0.00 0.00 0.00 0.00 0.00 0.00 0.00 0.00 0.00 0.00 0.00 0.00 0.00 0.00 0.00 0.00 0.00 0.00 0.00 0.00 0.00 0.00 0.00 0.00 0.00 0.00 0.00 0.00 0.00 0.00 0.00 0.00 0.00 0.00 0.00 0.00 0.00 0.00
0.00 0.00 0.00 0.00 0.00 0.00 0.00 0.00 0.00 0.00 0.00 0.00 0.00 0.00 0.00 0.00 0.00 0.00 0.00 0.00 0.00 0.00 0.00 0.00 0.00 0.00 0.00 0.00 0.00 0.00 0.00 0.00 0.00 0.00 0.00 0.00 0.00 0.00 0.00 0.00 0.00 0.00 0.00 0.00
0.00 0.00 0.00 0.00 0.00 0.00 0.00 0.00 0.00 0.00 0.00 0.00 0.00 0.00 0.00 0.00 0.00 0.00 0.00 0.00 0.00 0.00 0.00 0.00 0.00 0.00 0.00 0.00 0.00 0.00 0.00 0.00 0.00 0.00 0.00 0.00 0.00 0.00 0.00 0.00 0.00 0.00 0.00 0.00
0.00 0.00 0.00 0.00 0.00 0.00 0.00 0.00 0.00 0.00 0.00 0.00 0.00 0.00 0.00 0.00 0.00 0.00 0.00 0.00 0.00 0.00 0.00 0.00 0.00 0.00 0.00 0.00 0.00 0.00 0.00 0.00 0.00 0.00 0.00 0.00 0.00 0.00 0.01 0.01 0.01 0.01 0.01 0.01
0.00 0.00 0.00 0.00 0.00 0.00 0.00 0.00 0.00 0.00 0.00 0.00 0.00 0.00 0.00 0.00 0.00 0.00 0.00 0.00 0.00 0.00 0.00 0.00 0.00 0.00 0.00 0.00 0.00 0.00 0.00 0.00 0.00 0.00 0.00 0.00 0.01 0.01 0.01 0.01 0.01 0.01 0.01 0.01
0.00 0.00 0.00 0.00 0.00 0.00 0.00 0.00 0.00 0.00 0.00 0.00 0.00 0.00 0.00 0.00 0.00 0.00 0.00 0.00 0.00 0.01 0.01 0.01 0.01 0.01 0.01 0.00 0.00 0.00 0.00 0.00 0.00 0.00 0.00 0.01 0.00 0.00 0.00 0.01 0.01 0.01 0.01 0.01
0.00 0.00 0.00 0.00 0.00 0.00 0.00 0.00 0.00 0.00 0.00 0.00 0.00 0.00 0.00 0.00 0.00 0.00 0.00 0.00 0.00 0.00 0.01 0.00 0.01 0.01 0.00 0.00 0.01 0.00 0.00 0.00 0.00 0.00 0.00 0.00 0.00 0.00 0.00 0.00 0.01 0.01 0.01 0.01
0.00 0.00 0.00 0.00 0.00 0.00 0.00 0.00 0.00 0.00 0.00 0.00 0.00 0.00 0.00 0.00 0.00 0.00 0.00 0.00 0.00 0.00 0.00 0.00 0.00 0.01 0.01 0.00 0.00 0.00 0.00 0.00 0.00 0.00 0.00 0.01 0.00 0.00 0.01 0.01 0.01 0.01 0.01 0.01
MSLP
1015.23 1015.63 1015.99 1016.28 1016.51 1016.66 1016.75 1016.78 1016.78 1016.77 1016.80 1016.88 1017.05 1017.30 1017.66 1018.09 1018.59 1019.13 1019.67 1020.18 1020.63 1021.02 1021.34 1021.60 1021.80 1021.97 1022.11 1022.23 1022.35 1022.47 1022.57 1022.66 1022.73 1022.77 1022.77 1022.75 1022.68 1022.59 1022.47 1022.33 1022.15 1021.96 1021.74 1021.50
1015.27 1015.61 1015.89 1016.07 1016.18 1016.23 1016.24 1016.25 1016.28 1016.37 1016.53 1016.78 1017.12 1017.54 1018.02 1018.53 1019.04 1019.52 1019.96 1020.33 1020.65 1020.90 1021.12 1021.30 1021.47 1021.63 1021.80 1021.97 1022.13 1022.27 1022.39 1022.48 1022.52 1022.53 1022.49 1022.43 1022.35 1022.25 1022.13 1022.00 1021.85 1021.69 1021.49 1021.28
1015.40 1015.68 1015.85 1015.93 1015.93 1015.89 1015.84 1015.82 1015.89 1016.05 1016.33 1016.72 1017.21 1017.76 1018.34 1018.90 1019.41 1019.85 1020.20 1020.46 1020.65 1020.80 1020.91 1021.03 1021.17 1021.32 1021.50 1021.69 1021.87 1022.03 1022.15 1022.23 1022.25 1022.22 1022.16 1022.07 1021.97 1021.86 1021.75 1021.64 1021.52 1021.38 1021.22 1021.03
1015.61 1015.81 1015.89 1015.87 1015.77 1015.65 1015.55 1015.52 1015.60 1015.82 1016.19 1016.69 1017.29 1017.94 1018.59 1019.19 1019.70 1020.10 1020.39 1020.57 1020.67 1020.72 1020.76 1020.82 1020.92 1021.05 1021.23 1021.42 1021.61 1021.76 1021.88 1021.93 1021.93 1021.89 1021.81 1021.70 1021.60 1021.49 1021.40 1021.31 1021.21 1021.09 1020.95 1020.78
1015.85 1015.96 1015.95 1015.84 1015.67 1015.49 1015.35 1015.31 1015.41 1015.68 1016.10 1016.68 1017.35 1018.06 1018.76 1019.39 1019.91 1020.29 1020.54 1020.66 1020.70 1020.69 1020.68 1020.69 1020.75 1020.85 1021.01 1021.18 1021.35 1021.49 1021.59 1021.63 1021.61 1021.56 1021.47 1021.37 1021.28 1021.19 1021.12 1021.05 1020.97 1020.87 1020.74 1020.58
1016.03 1016.05 1015.96 1015.79 1015.57 1015.36 1015.22 1015.19 1015.31 1015.61 1016.08 1016.69 1017.41 1018.17 1018.89 1019.54 1020.06 1020.44 1020.67 1020.77 1020.77 1020.73 1020.68 1020.65 1020.67 1020.74 1020.86 1021.00 1021.13 1021.25 1021.33 1021.35 1021.33 1021.28 1021.20 1021.12 1021.04 1020.98 1020.93 1020.88 1020.82 1020.74 1020.62 1020.44
1016.06 1016.01 1015.87 1015.67 1015.45 1015.25 1015.12 1015.12 1015.28 1015.61 1016.11 1016.76 1017.50 1018.27 1019.01 1019.67 1020.20 1020.58 1020.81 1020.90 1020.90 1020.84 1020.77 1020.71 1020.70 1020.73 1020.80 1020.90 1021.00 1021.09 1021.14 1021.15 1021.13 1021.08 1021.01 1020.95 1020.90 1020.86 1020.83 1020.80 1020.76 1020.68 1020.56 1020.38
1015.89 1015.79 1015.64 1015.46 1015.27 1015.12 1015.06 1015.12 1015.33 1015.70 1016.23 1016.89 1017.64 1018.41 1019.16 1019.81 1020.35 1020.74 1020.98 1021.08 1021.09 1021.03 1020.95 1020.88 1020.83 1020.83 1020.85 1020.91 1020.97 1021.01 1021.04 1021.04 1021.02 1020.97 1020.92 1020.87 1020.83 1020.81 1020.79 1020.76 1020.72 1020.64 1020.52 1020.34
1015.51 1015.41 1015.28 1015.16 1015.05 1015.00 1015.03 1015.17 1015.45 1015.88 1016.44 1017.11 1017.85 1018.61 1019.34 1019.99 1020.52 1020.92 1021.17 1021.30 1021.32 1021.28 1021.20 1021.11 1021.05 1021.01 1021.00 1021.01 1021.03 1021.04 1021.05 1021.03 1020.99 1020.95 1020.90 1020.85 1020.81 1020.77 1020.74 1020.71 1020.65 1020.57 1020.44 1020.26
1014.95 1014.89 1014.84 1014.81 1014.83 1014.90 1015.05 1015.31 1015.67 1016.14 1016.73 1017.40 1018.13 1018.86 1019.56 1020.19 1020.71 1021.11 1021.37 1021.52 1021.56 1021.53 1021.46 1021.37 1021.30 1021.23 1021.20 1021.17 1021.16 1021.15 1021.13 1021.09 1021.04 1020.98 1020.91 1020.84 1020.78 1020.71 1020.65 1020.57 1020.49 1020.38 1020.25 1020.08
1014.31 1014.32 1014.38 1014.49 1014.65 1014.87 1015.15 1015.51 1015.95 1016.48 1017.08 1017.74 1018.44 1019.13 1019.80 1020.39 1020.89 1021.28 1021.54 1021.70 1021.76 1021.75 1021.69 1021.61 1021.53 1021.45 1021.40 1021.35 1021.32 1021.28 1021.24 1021.18 1021.11 1021.03 1020.93 1020.82 1020.70 1020.58 1020.45 1020.32 1020.19 1020.05 1019.90 1019.73
1013.69 1013.81 1014.00 1014.25 1014.56 1014.92 1015.33 1015.79 1016.30 1016.86 1017.46 1018.10 1018.75 1019.39 1020.00 1020.55 1021.01 1021.38 1021.64 1021.81 1021.88 1021.88 1021.84 1021.76 1021.68 1021.61 1021.54 1021.49 1021.44 1021.39 1021.34 1021.26 1021.17 1021.05 1020.90 1020.74 1020.55 1020.35 1020.15 1019.94 1019.74 1019.55 1019.37 1019.21
1013.18 1013.41 1013.73 1014.13 1014.57 1015.05 1015.57 1016.10 1016.65 1017.22 1017.81 1018.41 1019.01 1019.59 1020.14 1020.63 1021.06 1021.40 1021.65 1021.81 1021.88 1021.90 1021.86 1021.80 1021.73 1021.65 1021.59 1021.53 1021.49 1021.44 1021.37 1021.29 1021.17 1021.02 1020.83 1020.60 1020.34 1020.06 1019.76 1019.47 1019.20 1018.94 1018.73 1018.55
1012.82 1013.17 1013.61 1014.12 1014.67 1015.25 1015.82 1016.40 1016.97 1017.53 1018.09 1018.64 1019.18 1019.70 1020.18 1020.63 1021.01 1021.32 1021.55 1021.70 1021.78 1021.79 1021.76 1021.71 1021.64 1021.57 1021.52 1021.47 1021.43 1021.38 1021.32 1021.24 1021.11 1020.93 1020.70 1020.41 1020.08 1019.72 1019.34 1018.97 1018.61 1018.29 1018.02 1017.82
1012.60 1013.06 1013.59 1014.19 1014.81 1015.44 1016.05 1016.64 1017.20 1017.73 1018.25 1018.75 1019.23 1019.69 1020.13 1020.52 1020.87 1021.15 1021.36 1021.50 1021.57 1021.59 1021.56 1021.51 1021.44 1021.38 1021.33 1021.29 1021.26 1021.23 1021.18 1021.10 1020.97 1020.78 1020.52 1020.20 1019.82 1019.40 1018.95 1018.50 1018.07 1017.68 1017.36 1017.11
1012.48 1013.02 1013.63 1014.27 1014.93 1015.58 1016.19 1016.77 1017.30 1017.80 1018.27 1018.72 1019.15 1019.57 1019.97 1020.34 1020.66 1020.92 1021.12 1021.25 1021.31 1021.32 1021.28 1021.22 1021.15 1021.09 1021.04 1021.01 1020.99 1020.98 1020.95 1020.88 1020.77 1020.59 1020.33 1019.99 1019.58 1019.12 1018.63 1018.12 1017.64 1017.19 1016.81 1016.51
1012.39 1012.98 1013.63 1014.31 1014.97 1015.61 1016.20 1016.74 1017.24 1017.70 1018.13 1018.55 1018.96 1019.35 1019.73 1020.08 1020.39 1020.64 1020.83 1020.95 1021.00 1021.00 1020.95 1020.88 1020.80 1020.73 1020.68 1020.66 1020.65 1020.66 1020.65 1020.61 1020.52 1020.36 1020.12 1019.79 1019.38 1018.91 1018.39 1017.86 1017.33 1016.85 1016.42 1016.06
1012.26 1012.89 1013.56 1014.24 1014.89 1015.50 1016.06 1016.57 1017.03 1017.46 1017.87 1018.26 1018.65 1019.04 1019.41 1019.76 1020.07 1020.32 1020.51 1020.62 1020.66 1020.64 1020.58 1020.49 1020.40 1020.32 1020.27 1020.25 1020.26 1020.28 1020.30 1020.29 1020.23 1020.10 1019.89 1019.59 1019.21 1018.75 1018.24 1017.70 1017.16 1016.64 1016.18 1015.78
1012.05 1012.71 1013.38 1014.05 1014.68 1015.26 1015.79 1016.26 1016.69 1017.09 1017.48 1017.87 1018.26 1018.65 1019.02 1019.38 1019.69 1019.94 1020.12 1020.23 1020.26 1020.23 1020.15 1020.05 1019.95 1019.86 1019.81 1019.79 1019.81 1019.85 1019.89 1019.91 1019.89 1019.80 1019.63 1019.36 1019.01 1018.59 1018.10 1017.58 1017.04 1016.52 1016.03 1015.60
1011.78 1012.45 1013.13 1013.78 1014.39 1014.94 1015.43 1015.87 1016.27 1016.65 1017.03 1017.41 1017.79 1018.18 1018.56 1018.91 1019.22 1019.46 1019.64 1019.73 1019.76 1019.71 1019.63 1019.52 1019.41 1019.32 1019.27 1019.26 1019.29 1019.35 1019.41 1019.46 1019.47 1019.42 1019.29 1019.06 1018.76 1018.37 1017.91 1017.42 1016.90 1016.38 1015.89 1015.43
1011.49 1012.18 1012.86 1013.49 1014.07 1014.59 1015.04 1015.45 1015.82 1016.18 1016.54 1016.90 1017.27 1017.64 1018.01 1018.34 1018.63 1018.86 1019.02 1019.11 1019.12 1019.07 1018.98 1018.87 1018.77 1018.69 1018.65 1018.65 1018.70 1018.77 1018.86 1018.93 1018.96 1018.94 1018.84 1018.65 1018.38 1018.02 1017.61 1017.14 1016.65 1016.15 1015.66 1015.20
1011.25 1011.95 1012.63 1013.25 1013.80 1014.28 1014.70 1015.07 1015.41 1015.73 1016.05 1016.37 1016.71 1017.05 1017.37 1017.67 1017.93 1018.13 1018.26 1018.32 1018.32 1018.26 1018.18 1018.08 1018.00 1017.94 1017.92 1017.95 1018.01 1018.11 1018.21 1018.29 1018.34 1018.33 1018.25 1018.09 1017.84 1017.52 1017.13 1016.70 1016.24 1015.77 1015.29 1014.84
1011.10 1011.82 1012.48 1013.08 1013.60 1014.05 1014.43 1014.75 1015.04 1015.31 1015.58 1015.85 1016.13 1016.41 1016.68 1016.92 1017.12 1017.27 1017.36 1017.40 1017.38 1017.33 1017.25 1017.18 1017.12 1017.09 1017.10 1017.15 1017.24 1017.35 1017.46 1017.55 1017.60 1017.60 1017.52 1017.37 1017.14 1016.84 1016.48 1016.08 1015.65 1015.20 1014.76 1014.33
1011.07 1011.79 1012.44 1013.01 1013.49 1013.90 1014.23 1014.50 1014.74 1014.95 1015.15 1015.36 1015.56 1015.76 1015.95 1016.12 1016.25 1016.34 1016.39 1016.40 1016.37 1016.31 1016.25 1016.20 1016.17 1016.17 1016.21 1016.29 1016.40 1016.51 1016.62 1016.71 1016.76 1016.74 1016.66 1016.51 1016.28 1016.00 1015.66 1015.29 1014.89 1014.49 1014.08 1013.68
1011.13 1011.83 1012.46 1012.99 1013.44 1013.79 1014.07 1014.29 1014.47 1014.63 1014.76 1014.89 1015.02 1015.14 1015.24 1015.33 1015.39 1015.43 1015.43 1015.40 1015.36 1015.30 1015.26 1015.23 1015.22 1015.25 1015.32 1015.41 1015.52 1015.64 1015.74 1015.81 1015.83 1015.80 1015.70 1015.53 1015.31 1015.04 1014.73 1014.38 1014.03 1013.67 1013.32 1012.97
1011.23 1011.89 1012.48 1012.97 1013.37 1013.68 1013.91 1014.09 1014.22 1014.32 1014.40 1014.46 1014.52 1014.57 1014.61 1014.63 1014.63 1014.61 1014.57 1014.52 1014.46 1014.41 1014.37 1014.35 1014.37 1014.41 1014.48 1014.57 1014.67 1014.77 1014.84 1014.88 1014.86 1014.80 1014.68 1014.50 1014.28 1014.02 1013.73 1013.43 1013.13 1012.83 1012.54 1012.26
1011.28 1011.89 1012.43 1012.87 1013.22 1013.49 1013.69 1013.83 1013.93 1014.00 1014.05 1014.08 1014.09 1014.09 1014.09 1014.06 1014.02 1013.97 1013.90 1013.83 1013.77 1013.71 1013.67 1013.65 1013.67 1013.70 1013.76 1013.83 1013.89 1013.95 1013.97 1013.96 1013.90 1013.80 1013.65 1013.45 1013.23 1012.99 1012.75 1012.50 1012.26 1012.04 1011.82 1011.62
Thickness
5668 5675 5676 5676 5676 5673 5669 5665 5659 5664 5664 5668 5667 5663 5658 5653 5647 5642 5638 5633 5627 5621 5615 5610 5604 5600 5595 5590 5586 5582 5578 5574 5570 5567 5563 5560 5558 5555 5553 5551 5550 5548 5547 5546
5664 5672 5672 5669 5673 5673 5671 5669 5665 5665 5663 5668 5664 5659 5653 5648 5643 5639 5634 5629 5623 5617 5612 5607 5602 5597 5591 5586 5582 5578 5574 5570 5567 5564 5560 5557 5554 5551 5549 5547 5545 5544 5543 5542
5650 5662 5665 5657 5666 5669 5668 5667 5665 5660 5662 5660 5656 5652 5648 5644 5641 5636 5631 5625 5620 5614 5610 5605 5600 5594 5588 5584 5579 5575 5571 5568 5564 5561 5557 5554 5551 5548 5545 5543 5541 5540 5539 5539
5642 5651 5643 5659 5672 5671 5666 5663 5663 5662 5660 5656 5654 5649 5644 5641 5637 5632 5627 5621 5617 5612 5607 5602 5597 5591 5586 5581 5577 5572 5569 5566 5563 5559 5555 5552 5548 5546 5543 5541 5539 5537 5537 5537
5634 5637 5645 5660 5668 5666 5661 5658 5661 5657 5653 5649 5646 5643 5637 5636 5633 5629 5623 5618 5614 5609 5605 5599 5594 5589 5584 5579 5574 5570 5567 5564 5561 5558 5554 5550 5547 5544 5542 5539 5538 5536 5535 5535
5634 5636 5636 5655 5668 5671 5664 5652 5658 5654 5648 5643 5642 5634 5633 5633 5629 5624 5619 5614 5610 5605 5601 5596 5591 5587 5581 5577 5572 5569 5566 5563 5560 5556 5552 5549 5546 5544 5541 5539 5537 5536 5535 5534
5634 5634 5642 5661 5667 5667 5648 5650 5658 5653 5648 5642 5639 5636 5633 5629 5624 5619 5615 5611 5607 5602 5598 5593 5589 5585 5580 5575 5571 5569 5565 5562 5559 5555 5552 5549 5546 5543 5541 5539 5537 5536 5535 5535
5630 5631 5639 5662 5662 5656 5654 5658 5656 5651 5646 5640 5635 5632 5629 5625 5620 5615 5610 5607 5603 5598 5594 5590 5587 5583 5578 5574 5571 5568 5564 5561 5557 5554 5552 5550 5546 5543 5541 5539 5537 5536 5535 5535
5639 5641 5652 5657 5659 5660 5657 5654 5652 5648 5643 5638 5632 5628 5624 5620 5615 5611 5607 5603 5599 5595 5591 5587 5584 5581 5577 5573 5570 5567 5563 5559 5556 5554 5551 5549 5546 5544 5541 5539 5537 5536 5535 5535
5643 5648 5653 5656 5657 5657 5657 5654 5651 5647 5642 5637 5632 5627 5621 5616 5611 5607 5604 5600 5596 5592 5588 5584 5581 5579 5576 5573 5569 5566 5562 5559 5556 5553 5551 5549 5547 5545 5542 5541 5539 5538 5537 5537
5643 5649 5652 5654 5654 5653 5652 5650 5647 5643 5640 5636 5631 5624 5619 5614 5609 5605 5601 5597 5593 5590 5586 5583 5580 5577 5575 5572 5569 5565 5561 5558 5556 5554 5551 5549 5548 5546 5545 5544 5542 5541 5540 5539
5645 5651 5649 5650 5652 5652 5649 5646 5644 5640 5635 5632 5629 5623 5618 5612 5608 5603 5599 5595 5591 5588 5584 5582 5579 5576 5574 5571 5568 5565 5561 5558 5556 5554 5552 5550 5549 5549 5549 5548 5547 5546 5544 5543
5655 5655 5652 5653 5652 5651 5648 5645 5642 5639 5634 5629 5625 5622 5617 5611 5606 5602 5598 5594 5591 5587 5584 5581 5578 5576 5574 5571 5569 5565 5562 5560 5557 5555 5553 5552 5551 5550 5550 5552 5552 5551 5550 5548
5656 5654 5650 5651 5650 5649 5647 5644 5640 5636 5632 5629 5624 5620 5616 5611 5606 5602 5599 5596 5592 5588 5585 5582 5579 5577 5575 5573 5570 5567 5564 5561 5559 5557 5555 5554 5553 5552 5552 5552 5553 5555 5555 5554
5657 5657 5653 5652 5649 5647 5645 5641 5637 5632 5629 5626 5623 5619 5615 5611 5607 5604 5601 5597 5593 5589 5586 5583 5581 5579 5577 5575 5572 5569 5566 5564 5562 5560 5558 5557 5556 5555 5555 5555 5555 5556 5558 5559
5656 5655 5653 5650 5648 5646 5643 5640 5636 5632 5629 5626 5623 5620 5617 5613 5609 5605 5602 5599 5594 5591 5589 5586 5583 5582 5580 5577 5574 5572 5570 5568 5566 5564 5562 5561 5560 5560 5559 5559 5559 5560 5561 5562
5654 5650 5649 5648 5647 5646 5644 5642 5639 5636 5632 5628 5625 5622 5618 5613 5609 5606 5603 5601 5598 5595 5593 5590 5588 5587 5584 5581 5578 5576 5574 5572 5570 5568 5566 5565 5565 5564 5564 5564 5564 5564 5566 5566
5662 5659 5657 5654 5651 5649 5647 5645 5642 5639 5635 5633 5629 5624 5619 5615 5612 5609 5606 5603 5600 5597 5596 5594 5592 5590 5588 5585 5582 5580 5578 5576 5574 5573 5571 5570 5569 5569 5568 5568 5568 5569 5570 5571
5661 5659 5658 5656 5654 5651 5649 5646 5644 5641 5639 5635 5631 5626 5623 5619 5616 5613 5609 5605 5603 5601 5601 5600 5597 5594 5592 5590 5587 5584 5582 5580 5578 5577 5575 5574 5573 5573 5572 5572 5572 5572 5573 5573
5662 5661 5659 5657 5655 5653 5650 5648 5646 5643 5641 5637 5633 5629 5625 5622 5620 5616 5612 5609 5609 5609 5608 5605 5602 5599 5597 5594 5591 5588 5586 5584 5582 5581 5579 5578 5577 5577 5576 5576 5576 5575 5575 5575
5663 5661 5660 5658 5656 5655 5653 5651 5648 5645 5642 5640 5636 5632 5629 5627 5623 5620 5615 5614 5616 5614 5612 5609 5606 5603 5601 5598 5595 5592 5590 5588 5586 5585 5583 5581 5580 5580 5579 5579 5578 5578 5578 5577
5664 5662 5661 5660 5657 5655 5654 5653 5651 5648 5645 5642 5639 5636 5632 5629 5626 5623 5621 5621 5622 5619 5616 5613 5611 5608 5605 5602 5599 5596 5594 5592 5590 5588 5586 5584 5583 5582 5582 5581 5580 5580 5579 5578
5665 5664 5663 5661 5659 5657 5655 5653 5652 5650 5647 5645 5642 5639 5637 5634 5631 5627 5626 5627 5625 5623 5620 5618 5616 5612 5608 5605 5602 5599 5597 5595 5593 5591 5589 5588 5586 5584 5583 5582 5581 5580 5579 5578
5666 5665 5663 5662 5659 5656 5654 5654 5653 5651 5650 5648 5646 5644 5641 5637 5634 5634 5633 5632 5629 5626 5624 5622 5618 5615 5611 5608 5605 5602 5600 5598 5596 5594 5592 5590 5588 5586 5584 5582 5580 5579 5578 5576
5668 5666 5663 5661 5659 5657 5657 5655 5653 5651 5650 5648 5647 5646 5644 5642 5640 5639 5636 5634 5632 5628 5626 5624 5621 5617 5613 5610 5607 5605 5602 5600 5598 5596 5593 5590 5588 5586 5584 5582 5580 5578 5576 5575
5668 5666 5665 5664 5662 5660 5658 5655 5653 5652 5650 5649 5649 5648 5646 5645 5643 5641 5638 5636 5634 5631 5628 5626 5623 5619 5616 5613 5610 5607 5604 5602 5599 5595 5593 5590 5587 5585 5583 5581 5578 5576 5574 5572
5667 5666 5663 5662 5662 5661 5659 5657 5656 5654 5653 5652 5651 5650 5648 5646 5644 5642 5639 5637 5634 5632 5629 5627 5624 5621 5617 5614 5611 5608 5605 5602 5599 5595 5592 5589 5586 5584 5581 5579 5576 5574 5572 5569